Vorticity
7 7 6 6 7 7 7 7 7 7 6 5 5 4 4 4 3 4 5 5 7 7 8 9 9 10 10 10 10 10 9 9 9 9 8 8 8 8 7 7 7 7 7 7 6 6 6 6 7 7 7 8 8 8 9 9 8 9 9 8 9 9 9 8 9 8 9 10 9 8 7 9 9 8 8 9 11 9 6 10 12 9 9 10 7 8 10 11
8 7 6 6 5 5 5 5 6 5 5 4 4 3 3 4 5 6 6 7 7 8 8 8 8 8 6 6 5 5 5 5 6 7 7 7 7 7 8 7 7 6 7 7 6 6 6 6 7 8 9 9 10 11 11 11 12 12 11 12 12 10 8 10 12 11 11 11 10 11 11 10 11 11 11 12 11 9 9 11 12 11 11 9 8 7 9 10
8 9 9 7 7 6 5 4 4 4 4 3 3 3 4 4 6 7 7 7 7 7 7 7 7 6 6 5 5 5 5 5 5 6 7 7 7 7 7 7 7 7 6 6 7 7 8 9 9 9 9 9 10 10 10 11 11 11 12 11 9 9 12 13 11 11 10 10 10 11 11 9 9 10 9 9 9 9 10 11 11 12 11 8 8 9 9 9
9 10 11 10 9 8 8 7 6 6 6 6 6 6 6 6 8 8 7 7 6 6 6 5 5 5 5 5 6 7 7 7 6 6 7 7 7 7 7 7 6 6 7 7 8 9 9 9 9 9 8 7 7 7 7 8 9 9 9 8 7 9 11 9 8 9 8 8 9 8 9 9 8 6 7 8 8 9 10 9 9 10 10 9 10 11 10 9
9 11 13 13 12 11 10 10 9 9 9 9 9 9 9 9 8 7 6 5 5 5 4 4 4 4 5 5 7 8 9 9 6 7 9 8 8 7 6 6 7 7 8 9 9 9 10 9 8 8 7 7 7 6 6 6 6 6 6 5 7 9 7 6 7 8 8 8 8 8 8 9 10 9 10 10 9 10 10 8 10 11 10 10 9 9 11 10
6 8 10 12 12 12 12 11 11 11 10 10 10 9 9 8 6 5 5 4 5 5 5 5 5 5 5 6 7 8 9 8 7 10 9 8 7 6 7 7 8 9 9 9 10 10 9 9 7 7 8 8 8 8 8 6 6 5 5 5 6 8 7 8 8 7 8 8 7 7 7 8 9 10 9 9 10 12 11 11 13 10 6 8 8 9 11 10
5 5 6 7 8 9 9 9 9 8 8 7 6 6 5 4 4 4 5 5 6 6 6 6 6 6 6 7 8 8 10 10 10 11 8 8 7 7 8 8 8 8 9 10 10 9 8 8 8 7 7 7 8 8 8 9 8 8 7 6 6 7 6 7 8 8 7 7 6 6 7 7 7 7 8 9 10 11 12 13 12 8 8 10 10 9 9 9
6 5 4 4 5 5 5 5 5 4 4 4 3 3 3 4 4 4 5 5 5 5 5 6 6 7 8 8 10 11 12 11 11 10 8 8 8 9 9 8 10 10 10 10 8 8 7 7 7 7 8 8 8 8 10 12 11 11 12 11 10 8 7 7 8 9 8 8 7 7 8 9 8 7 8 11 12 11 11 12 10 10 13 12 11 10 9 9
8 6 5 4 4 4 4 4 4 3 3 3 3 3 3 3 4 4 4 4 5 6 6 7 8 8 9 10 12 13 12 10 10 8 8 9 9 9 9 9 11 10 10 8 7 7 6 7 7 7 8 9 11 13 14 15 14 16 17 16 15 13 12 12 11 12 11 12 14 13 12 12 12 11 12 14 12 10 10 12 12 11 13 13 12 11 10 10
9 8 7 7 6 6 5 5 4 4 4 4 4 4 4 4 5 5 6 7 7 8 8 9 9 9 10 12 12 11 10 8 8 8 9 9 10 10 11 11 10 9 8 7 7 6 7 8 9 11 13 15 18 20 21 21 21 22 23 22 21 20 19 17 15 16 17 18 19 17 15 15 14 11 12 13 9 9 10 11 11 10 11 13 13 12 11 10
10 9 9 8 8 8 7 7 7 7 7 7 7 7 7 7 8 8 9 9 9 10 10 10 10 10 11 11 10 9 7 7 8 9 10 10 11 11 11 11 9 8 7 7 7 7 9 11 14 18 21 23 24 25 25 25 24 24 24 24 25 25 24 23 21 22 22 22 22 21 19 18 19 16 14 14 13 12 10 11 11 10 10 10 12 13 13 11
8 8 8 8 8 8 8 8 8 8 8 7 7 7 7 7 7 8 9 10 11 12 12 11 11 11 11 9 7 6 6 8 10 10 11 11 12 11 10 9 8 8 7 7 8 11 14 18 23 25 26 27 25 24 23 22 21 21 21 21 22 21 21 22 21 23 22 21 23 22 22 22 22 18 15 16 17 15 13 13 13 12 11 10 11 11 12 12
7 7 7 7 7 7 7 8 8 8 8 7 7 7 7 7 9 10 11 13 13 13 12 11 11 10 8 7 6 7 9 10 10 10 11 12 11 10 9 8 7 7 7 9 12 18 22 25 26 24 23 21 18 17 16 17 17 16 17 16 15 15 17 17 16 17 17 18 20 19 22 26 24 17 16 19 18 17 16 14 14 13 11 10 10 10 11 12
7 7 7 6 6 6 7 8 9 9 10 9 9 8 10 13 15 15 15 14 12 11 10 9 8 7 7 8 8 10 10 10 11 12 12 11 11 10 9 8 7 7 8 13 19 24 25 23 21 19 18 15 13 14 15 16 15 13 13 12 12 13 16 17 17 16 16 17 17 20 19 14 16 18 18 20 19 19 17 15 15 15 13 11 11 11 10 11
7 7 7 7 7 6 6 9 12 12 13 11 10 12 15 17 16 14 11 10 9 8 7 6 7 7 8 10 10 10 10 11 12 12 11 11 10 8 7 6 6 8 13 20 25 24 21 18 17 17 17 15 13 13 14 14 13 13 12 11 13 11 8 12 14 11 12 14 12 16 12 -1 6 16 16 17 18 18 18 17 16 16 15 14 12 12 11 11
7 6 7 8 7 6 6 11 14 13 12 11 10 12 12 11 9 8 7 7 7 6 6 8 8 8 9 9 9 10 11 12 11 11 11 11 9 8 7 7 9 13 19 25 25 20 18 17 16 16 15 14 13 11 11 11 10 11 10 10 11 6 4 7 11 11 11 12 10 11 8 2 7 12 15 18 18 17 17 16 16 16 16 14 13 12 12 12
7 6 7 7 7 7 7 11 14 11 10 9 8 8 6 6 6 6 7 7 7 8 8 8 7 8 9 9 9 10 11 11 11 12 12 11 9 8 7 8 12 17 24 26 20 16 16 14 12 12 11 10 9 8 8 8 7 8 8 7 4 3 4 5 10 14 8 3 4 3 2 5 7 5 7 12 15 18 17 16 16 15 15 14 14 13 11 11
6 6 7 6 7 7 6 10 12 9 10 7 4 6 5 4 5 6 7 8 8 8 8 8 8 8 9 10 11 10 11 12 13 13 11 9 8 7 7 10 15 21 26 23 14 13 14 9 8 9 8 7 7 6 6 7 7 7 6 4 3 4 5 5 6 6 2 -1 1 1 -0 3 5 2 1 1 4 10 14 18 19 19 16 14 14 14 12 10
5 5 6 6 7 8 8 9 10 9 9 5 3 6 4 3 5 6 7 8 9 8 8 9 8 9 10 11 11 11 12 14 14 11 9 8 7 7 9 12 19 24 24 17 11 10 9 7 7 9 9 8 6 5 5 6 7 6 6 5 5 5 5 6 4 -2 -2 0 -0 0 1 1 2 2 3 2 -0 0 3 9 14 19 20 17 15 14 14 12
5 5 6 6 7 10 11 10 9 10 9 4 3 3 3 4 5 6 7 7 9 9 9 9 9 10 11 11 12 13 15 14 11 9 8 7 6 10 11 14 23 25 17 10 8 7 6 4 4 6 8 7 6 6 6 7 8 7 7 6 5 5 4 4 3 -1 -0 2 -0 1 2 1 2 4 5 5 5 3 2 2 4 11 17 20 18 14 14 14
5 5 5 7 9 10 14 13 10 10 9 6 5 4 3 4 4 6 8 8 10 11 10 10 10 10 11 12 14 15 14 11 9 9 7 6 8 12 12 17 26 21 9 5 5 5 5 4 4 6 11 11 8 6 6 6 7 6 5 6 4 4 6 3 3 4 5 8 8 7 7 7 8 9 10 9 8 7 6 5 5 4 8 15 21 19 15 13
5 6 7 9 9 10 15 15 11 11 8 4 4 4 4 4 6 7 9 10 11 11 11 11 11 11 13 14 15 14 12 10 10 8 5 6 10 12 14 22 26 15 4 3 3 4 4 5 7 8 12 18 16 10 8 7 8 7 6 7 6 7 11 9 9 11 11 12 12 12 13 14 14 14 14 13 11 9 8 9 10 8 4 4 13 20 20 15
6 8 7 7 9 11 14 14 12 11 7 3 2 3 5 7 8 9 10 11 11 12 13 12 12 13 13 14 15 12 10 10 9 6 5 8 10 12 17 25 23 11 2 1 2 3 3 4 7 6 6 12 17 16 15 14 14 12 11 14 13 10 12 11 9 11 10 9 10 11 10 12 14 15 16 15 13 11 9 9 10 11 8 4 4 10 19 21
8 8 6 10 14 13 12 14 13 10 7 4 4 5 7 8 8 9 10 10 12 14 13 13 15 14 13 15 14 10 9 10 7 5 6 9 10 13 19 23 21 10 0 -0 2 4 4 4 5 7 6 5 9 11 11 13 13 11 10 13 12 9 10 11 8 7 7 8 10 10 10 12 12 11 15 14 11 10 8 9 9 9 11 9 6 3 8 18
9 8 8 14 19 14 13 15 12 8 7 6 6 7 7 7 8 9 10 12 14 14 15 16 15 13 14 15 12 8 10 9 6 5 6 8 11 15 20 23 22 12 -0 -1 3 4 5 5 4 7 8 7 9 10 9 9 10 11 9 8 9 9 10 11 11 10 11 10 10 9 8 10 9 8 12 11 9 9 7 7 8 8 10 10 11 8 2 6
10 9 10 15 16 13 12 12 9 8 7 7 8 7 7 8 8 9 12 14 16 17 17 16 13 13 15 13 9 8 11 8 4 5 7 8 11 16 22 24 21 11 1 0 4 5 5 5 6 6 9 12 13 12 13 10 9 11 9 9 12 13 13 14 14 14 14 11 9 10 7 9 13 11 11 12 10 8 7 9 10 8 8 8 10 12 8 4
11 11 12 14 13 11 9 8 8 7 7 8 8 7 7 8 9 12 15 16 17 18 16 13 13 14 14 10 8 10 11 7 4 6 7 9 14 17 22 24 18 10 4 2 5 7 6 6 7 8 11 14 13 13 10 4 4 9 11 14 15 15 17 18 18 17 14 14 14 16 15 14 19 17 13 16 12 6 4 7 15 16 10 7 7 9 10 10
12 12 11 10 10 10 9 8 7 6 7 8 8 8 8 9 12 16 17 16 18 17 13 13 14 14 12 8 7 11 10 6 6 7 7 11 15 18 22 22 16 10 6 3 5 7 4 4 8 8 10 12 11 10 3 -2 4 10 12 17 19 18 18 16 19 17 13 17 16 12 15 15 16 17 16 16 13 12 9 3 10 16 11 8 9 7 7 8
11 10 8 7 8 9 7 6 5 7 9 9 8 8 10 13 15 17 16 16 17 16 13 14 13 13 11 7 8 12 8 5 7 7 8 11 15 20 24 21 12 9 6 3 6 8 2 3 6 4 5 9 9 7 2 -0 4 7 12 20 23 21 20 17 16 13 8 12 12 6 11 15 13 16 16 13 11 15 16 6 6 10 7 7 9 8 8 7
7 7 6 6 8 7 5 5 7 10 10 8 9 11 14 16 15 15 17 16 15 15 15 13 11 12 10 7 12 12 6 5 7 7 9 11 15 21 24 19 12 8 5 4 7 6 2 4 6 3 5 9 7 3 5 4 -1 4 16 24 19 13 19 22 17 17 15 13 15 15 17 17 12 8 7 9 11 13 14 9 9 12 9 8 9 7 8 9
5 8 6 6 7 4 4 8 10 10 8 8 12 15 14 13 14 16 16 16 15 14 13 12 11 12 9 8 14 10 4 7 8 7 9 10 17 23 22 18 14 8 6 6 8 7 4 5 6 4 7 11 6 0 3 5 -2 1 15 22 15 9 15 19 12 14 14 5 7 17 26 26 17 8 4 7 13 17 18 17 14 15 12 11 12 9 7 10
7 9 6 6 5 3 8 12 10 8 8 12 15 14 12 14 17 17 16 16 15 11 12 12 12 12 8 9 13 7 5 9 7 8 10 11 18 23 19 17 12 5 4 5 7 7 4 7 9 6 7 9 5 -0 1 5 1 -2 6 16 15 11 13 12 6 7 11 7 7 18 30 27 12 9 11 10 14 18 17 19 17 16 15 12 13 11 8 8
9 8 6 5 4 7 13 11 7 8 12 15 14 12 14 17 17 17 17 15 12 12 15 13 11 11 8 10 11 5 6 9 7 9 11 13 20 21 17 17 11 2 2 4 7 8 5 7 9 9 9 7 2 1 1 5 6 -2 0 11 14 13 14 11 12 14 16 16 14 17 25 18 4 7 15 15 17 19 20 21 22 22 20 17 14 12 10 9
10 6 5 5 7 13 12 7 8 13 16 14 11 13 17 19 18 18 17 13 13 17 17 12 11 9 7 11 10 5 6 8 7 11 12 14 21 20 15 16 11 3 2 5 6 8 7 7 8 8 8 6 1 1 2 7 11 4 -1 7 11 13 14 11 12 14 12 12 9 9 15 14 9 8 8 11 12 11 16 20 22 24 25 24 19 13 10 8
8 4 4 7 12 14 7 6 12 15 14 11 11 16 19 21 21 20 18 16 17 19 15 13 12 8 8 12 8 4 7 7 7 11 12 13 20 19 14 14 12 5 3 6 6 6 6 6 9 9 8 7 3 3 5 8 12 7 0 6 10 9 13 13 8 7 10 11 5 7 12 8 9 7 -1 2 8 6 8 10 12 16 18 22 24 21 16 9
5 3 6 10 14 10 4 9 15 14 12 9 13 18 21 22 21 20 20 19 18 16 14 14 11 7 11 12 6 4 8 7 8 12 11 12 19 19 14 14 14 8 3 5 8 8 7 5 8 10 9 8 6 5 8 7 9 7 2 8 11 5 7 10 8 9 13 12 6 10 14 4 4 6 -5 -4 10 12 8 9 12 15 14 16 21 25 26 20
2 3 8 13 12 5 5 13 16 13 11 11 16 20 21 19 16 15 15 15 15 14 14 12 8 9 13 9 5 6 7 7 9 12 11 12 18 19 15 13 14 10 4 4 7 7 6 5 7 8 9 8 6 8 9 8 9 7 4 8 10 6 5 3 5 12 14 14 13 12 15 12 7 7 3 4 13 14 14 19 21 21 21 22 22 24 29 31
1 6 11 13 8 3 8 16 16 13 11 12 18 20 18 15 12 11 10 13 16 15 14 11 7 11 13 7 5 6 6 7 9 12 13 12 16 17 17 16 13 9 5 3 7 7 6 6 7 8 8 5 6 10 10 8 10 9 6 7 6 6 8 4 2 7 9 13 13 9 18 22 5 -1 10 14 13 12 15 24 25 18 17 18 18 21 27 34
2 9 13 11 5 4 12 17 15 12 10 13 17 17 15 14 12 10 10 15 17 16 16 11 8 13 11 5 5 6 6 8 9 11 13 14 15 16 18 18 13 10 6 3 6 7 7 9 8 5 5 5 7 10 7 6 10 9 6 8 7 4 6 8 6 5 6 9 7 5 21 22 -5 -8 11 12 10 12 9 18 27 19 9 9 16 23 24 29
4 10 13 9 4 7 15 17 14 11 10 13 15 14 13 13 13 11 12 17 18 16 16 11 9 14 10 4 6 6 6 8 9 10 11 14 16 16 16 16 13 10 7 3 3 5 7 9 7 4 6 8 8 5 5 8 11 6 0 3 7 5 5 9 7 4 4 5 4 4 16 16 -6 -5 12 9 10 15 9 11 21 19 7 4 20 30 23 25
6 13 12 7 4 9 17 17 13 9 9 13 12 11 13 16 19 18 16 20 20 18 15 10 10 14 9 5 5 5 6 8 10 10 10 13 16 17 17 15 13 11 8 5 4 5 4 5 7 8 6 7 5 2 5 10 10 7 2 1 4 3 6 9 5 4 4 4 4 2 9 13 -2 -4 9 9 8 13 9 8 15 20 11 0 14 28 21 27
8 14 11 5 4 11 17 16 13 8 9 13 10 10 14 19 24 22 16 15 15 15 12 9 13 13 8 5 4 4 6 7 9 10 10 12 15 17 18 16 14 12 9 8 6 3 4 5 7 7 5 5 5 4 6 7 7 8 5 5 6 4 5 8 4 4 6 4 3 2 8 13 -1 -6 7 10 7 8 6 5 10 20 19 2 6 20 17 19
10 13 9 4 4 13 18 16 12 7 8 13 10 10 14 16 17 16 12 11 11 11 11 11 14 12 7 5 4 5 7 7 9 10 10 12 12 13 17 17 16 14 12 12 10 7 9 8 5 6 8 8 5 5 8 5 3 4 3 5 7 5 5 7 4 5 7 5 4 5 8 8 -0 -1 6 7 8 7 3 4 7 15 22 13 5 11 14 12
11 12 8 3 5 15 18 14 11 6 7 13 10 10 14 11 10 10 10 12 11 10 11 13 14 11 7 5 4 6 7 7 9 9 10 12 12 12 15 16 15 15 14 13 12 12 11 8 7 8 8 6 7 9 7 0 -1 1 3 4 5 5 6 6 6 7 4 3 7 8 6 6 4 5 7 5 7 9 5 4 3 3 13 19 15 12 12 10
11 12 8 4 6 15 17 14 11 5 6 14 12 11 14 9 7 8 9 10 11 12 13 13 12 10 7 5 5 7 8 7 9 10 9 10 11 12 13 13 13 14 14 13 12 12 11 9 10 8 2 1 3 2 -1 -1 3 4 5 5 4 6 7 6 9 8 2 6 14 8 3 6 9 8 8 6 6 9 7 5 4 3 5 12 20 21 15 10
10 11 8 4 6 15 17 14 11 4 8 16 12 11 16 10 6 9 10 10 11 13 14 13 12 10 7 5 5 7 9 8 8 10 9 9 10 12 12 12 12 13 14 14 13 12 12 12 13 11 6 3 2 1 2 6 7 5 6 5 5 8 9 7 9 7 4 10 13 3 0 7 10 9 9 9 8 8 8 8 11 12 11 10 15 22 24 19
10 10 8 5 6 14 17 14 9 5 11 18 12 10 16 12 8 10 11 10 11 13 14 13 13 10 7 6 5 6 9 9 8 9 9 8 9 11 11 10 12 13 14 15 14 13 13 12 11 13 13 10 10 10 10 8 6 6 8 7 9 12 11 9 10 10 9 10 7 3 4 8 8 8 8 9 11 9 6 9 12 12 12 13 14 14 22 32
9 9 8 5 6 13 17 14 8 6 13 19 13 10 13 11 9 11 11 10 11 13 13 13 12 10 7 6 6 6 8 8 8 9 9 8 9 10 10 9 10 12 13 14 15 14 13 10 10 13 12 10 11 11 8 8 9 9 9 10 12 12 11 10 11 12 10 8 7 7 8 9 8 8 7 6 9 9 6 6 8 10 10 10 13 8 8 30
8 9 9 6 5 12 17 13 7 7 13 18 13 10 12 10 8 11 11 9 10 11 11 12 12 10 8 7 6 7 8 7 8 9 9 8 9 10 10 9 9 10 11 13 14 14 14 9 7 11 13 12 12 10 8 9 9 8 9 11 11 9 9 10 10 9 7 6 7 8 9 10 9 8 8 7 7 7 8 8 6 8 10 9 11 9 3 17
8 8 9 8 5 11 17 13 8 8 11 15 14 10 11 10 9 10 10 10 10 10 10 10 11 11 9 7 7 8 8 7 7 9 9 9 10 10 10 10 10 9 10 11 12 12 12 10 8 11 13 13 12 9 7 8 10 11 11 10 7 6 8 7 5 6 7 6 8 9 10 10 8 7 10 11 10 7 6 10 9 7 8 9 10 11 8 10
7 7 9 8 5 10 16 13 8 8 10 13 14 12 10 9 9 9 9 8 8 9 9 9 10 11 9 9 9 8 8 7 7 9 9 8 10 10 10 10 9 9 9 10 12 11 11 11 11 13 13 11 10 8 6 9 13 14 11 6 3 6 8 5 5 8 9 7 8 9 10 11 10 9 9 10 11 10 8 10 11 9 6 7 10 10 11 13
7 7 8 9 6 8 16 14 9 9 10 11 14 13 11 9 8 7 7 7 6 8 10 10 11 10 10 10 10 9 9 8 8 9 8 8 10 10 10 10 9 8 9 9 10 11 12 11 8 11 14 9 6 8 10 13 15 13 7 1 2 9 10 4 6 11 9 7 9 9 10 13 14 12 9 10 11 11 12 12 10 11 8 4 7 8 9 17
Height
5825 5824 5824 5823 5822 5821 5821 5820 5819 5819 5818 5818 5818 5817 5817 5816 5816 5815 5815 5814 5814 5813 5813 5812 5811 5810 5810 5809 5808 5807 5806 5805 5804 5803 5803 5802 5801 5800 5800 5799 5799 5798 5797 5797 5797 5796 5796 5796 5796 5795 5795 5795 5795 5795 5795 5795 5795 5794 5794 5794 5794 5794 5793 5792 5794 5794 5795 5796 5794 5796 5799 5800 5801 5801 5802 5805 5806 5807 5807 5810 5812 5812 5815 5815 5816 5819 5821 5823
5825 5824 5823 5822 5821 5821 5820 5819 5819 5818 5817 5817 5816 5816 5815 5814 5814 5813 5813 5812 5811 5811 5810 5810 5809 5808 5807 5807 5806 5805 5804 5803 5802 5801 5800 5799 5798 5798 5797 5796 5796 5795 5794 5793 5793 5793 5792 5792 5792 5792 5791 5791 5791 5790 5790 5790 5790 5790 5789 5790 5789 5788 5787 5788 5789 5789 5790 5791 5790 5791 5794 5795 5796 5797 5798 5801 5802 5803 5804 5807 5808 5809 5811 5811 5812 5814 5816 5818
5824 5823 5822 5822 5821 5820 5819 5818 5818 5817 5816 5815 5815 5814 5814 5813 5812 5811 5811 5810 5809 5809 5808 5807 5807 5806 5805 5804 5803 5802 5801 5800 5799 5798 5797 5796 5795 5795 5794 5793 5793 5792 5791 5790 5790 5789 5788 5788 5788 5788 5787 5786 5786 5786 5786 5786 5785 5785 5785 5785 5784 5783 5783 5784 5784 5784 5785 5786 5786 5787 5788 5789 5791 5792 5793 5796 5798 5798 5801 5803 5804 5806 5807 5807 5808 5810 5812 5814
5823 5822 5822 5821 5820 5819 5818 5817 5816 5816 5815 5814 5813 5813 5812 5811 5811 5810 5809 5808 5808 5807 5806 5805 5804 5803 5802 5801 5800 5799 5798 5797 5796 5795 5794 5793 5792 5792 5791 5790 5789 5789 5788 5787 5786 5785 5785 5784 5784 5784 5783 5782 5782 5781 5781 5781 5781 5780 5780 5779 5778 5779 5779 5779 5779 5779 5780 5781 5782 5782 5783 5784 5786 5787 5789 5791 5793 5794 5797 5798 5800 5801 5802 5803 5804 5807 5809 5810
5823 5822 5821 5820 5819 5818 5817 5816 5815 5814 5814 5813 5812 5811 5811 5810 5809 5808 5807 5807 5806 5805 5804 5803 5802 5801 5800 5798 5797 5796 5795 5794 5793 5792 5791 5790 5789 5788 5787 5787 5786 5785 5784 5783 5782 5781 5781 5781 5780 5779 5779 5778 5778 5777 5777 5777 5776 5775 5775 5774 5774 5775 5774 5773 5775 5775 5775 5776 5777 5778 5778 5780 5781 5783 5785 5786 5788 5791 5793 5793 5795 5797 5797 5799 5800 5802 5805 5806
5822 5821 5820 5819 5818 5817 5816 5815 5814 5813 5812 5811 5811 5810 5809 5808 5808 5807 5806 5805 5804 5803 5802 5801 5799 5798 5797 5795 5794 5793 5792 5790 5790 5789 5787 5787 5786 5785 5784 5783 5782 5781 5780 5779 5778 5777 5777 5776 5776 5775 5774 5774 5773 5772 5772 5772 5771 5770 5770 5770 5770 5769 5769 5769 5770 5770 5771 5772 5772 5773 5774 5776 5777 5779 5780 5782 5784 5786 5788 5788 5791 5792 5792 5794 5796 5797 5800 5802
5821 5820 5819 5818 5817 5816 5815 5814 5813 5812 5811 5810 5809 5809 5808 5807 5806 5805 5804 5803 5802 5801 5799 5798 5797 5795 5794 5793 5791 5790 5788 5787 5786 5785 5784 5783 5782 5781 5780 5779 5778 5777 5776 5775 5774 5773 5773 5772 5772 5771 5770 5769 5769 5768 5768 5767 5767 5765 5765 5766 5765 5764 5764 5764 5765 5765 5766 5767 5767 5769 5770 5771 5773 5774 5775 5778 5779 5781 5783 5784 5785 5787 5788 5790 5792 5794 5796 5798
5820 5819 5818 5817 5816 5815 5814 5813 5812 5811 5810 5809 5808 5807 5806 5805 5804 5803 5801 5800 5799 5798 5797 5795 5794 5793 5791 5790 5788 5787 5785 5784 5783 5782 5781 5780 5779 5777 5776 5775 5775 5774 5773 5771 5770 5769 5769 5768 5767 5767 5765 5765 5764 5763 5762 5761 5761 5760 5759 5760 5760 5759 5759 5759 5759 5759 5761 5762 5763 5764 5765 5767 5768 5769 5771 5773 5775 5776 5778 5779 5780 5782 5785 5787 5788 5790 5791 5794
5819 5817 5816 5815 5814 5814 5813 5811 5810 5809 5808 5807 5806 5805 5804 5803 5801 5800 5799 5797 5796 5795 5794 5792 5791 5789 5788 5786 5785 5783 5782 5781 5780 5778 5777 5776 5775 5774 5772 5772 5771 5770 5769 5768 5767 5766 5765 5764 5763 5762 5761 5760 5758 5757 5757 5755 5755 5755 5754 5754 5754 5754 5754 5754 5754 5755 5756 5757 5758 5760 5761 5762 5764 5765 5767 5768 5769 5771 5773 5775 5776 5778 5780 5783 5784 5786 5787 5790
5817 5816 5815 5814 5813 5812 5811 5810 5808 5807 5806 5805 5804 5802 5801 5800 5799 5797 5796 5794 5793 5792 5790 5789 5788 5786 5784 5783 5781 5780 5779 5777 5776 5775 5774 5772 5771 5770 5769 5768 5767 5766 5765 5764 5763 5762 5761 5759 5758 5757 5756 5754 5753 5751 5751 5750 5749 5749 5749 5749 5749 5749 5749 5750 5750 5751 5752 5753 5754 5756 5757 5758 5759 5761 5763 5762 5764 5766 5768 5770 5772 5773 5775 5778 5780 5782 5784 5786
5816 5815 5814 5813 5811 5810 5809 5808 5807 5805 5804 5803 5801 5800 5799 5798 5796 5795 5793 5792 5790 5789 5787 5786 5784 5783 5781 5780 5778 5777 5776 5774 5773 5772 5770 5769 5768 5767 5765 5764 5763 5762 5761 5760 5759 5758 5756 5755 5753 5752 5750 5749 5747 5746 5746 5745 5745 5745 5745 5745 5745 5745 5745 5746 5747 5747 5748 5749 5750 5751 5753 5754 5755 5756 5757 5757 5759 5762 5763 5765 5767 5769 5770 5773 5775 5778 5780 5782
5815 5814 5813 5811 5810 5808 5807 5806 5805 5803 5802 5800 5799 5798 5796 5795 5793 5792 5790 5789 5787 5786 5784 5783 5781 5780 5778 5777 5775 5774 5772 5771 5770 5768 5767 5766 5765 5764 5762 5761 5760 5759 5758 5756 5755 5754 5752 5750 5748 5747 5745 5744 5743 5743 5742 5742 5742 5742 5742 5742 5742 5742 5742 5743 5744 5745 5745 5746 5747 5748 5749 5749 5750 5751 5751 5753 5756 5757 5759 5760 5762 5764 5765 5768 5770 5773 5775 5777
5814 5813 5811 5810 5808 5807 5805 5803 5802 5801 5799 5798 5796 5795 5793 5792 5790 5789 5787 5786 5784 5783 5781 5780 5778 5777 5775 5774 5772 5771 5769 5768 5766 5765 5764 5763 5762 5760 5759 5758 5757 5755 5754 5753 5751 5749 5747 5745 5744 5743 5742 5741 5740 5740 5740 5740 5740 5740 5740 5740 5741 5740 5740 5741 5741 5742 5742 5743 5744 5746 5746 5746 5745 5746 5747 5749 5751 5752 5754 5756 5757 5759 5760 5763 5765 5768 5770 5772
5813 5811 5810 5808 5807 5805 5803 5801 5799 5798 5797 5795 5794 5792 5790 5789 5787 5786 5784 5783 5782 5780 5779 5777 5776 5774 5772 5771 5769 5767 5766 5764 5763 5762 5760 5760 5758 5757 5756 5754 5753 5752 5750 5749 5747 5745 5743 5742 5741 5740 5739 5739 5738 5738 5738 5738 5738 5738 5739 5739 5739 5739 5738 5739 5740 5740 5740 5741 5742 5743 5745 5744 5742 5742 5744 5745 5747 5748 5750 5751 5752 5754 5756 5758 5761 5763 5765 5767
5812 5810 5809 5807 5805 5803 5801 5799 5797 5795 5794 5793 5791 5790 5788 5786 5785 5783 5782 5781 5779 5778 5776 5775 5773 5771 5769 5768 5766 5764 5763 5761 5760 5759 5757 5756 5755 5754 5753 5751 5750 5748 5747 5745 5743 5741 5740 5739 5739 5738 5738 5737 5737 5736 5736 5737 5737 5737 5737 5737 5738 5738 5737 5737 5738 5738 5738 5739 5740 5740 5742 5741 5739 5739 5740 5742 5743 5744 5746 5747 5748 5750 5752 5754 5756 5758 5760 5762
5811 5809 5807 5805 5803 5801 5800 5797 5795 5793 5792 5791 5789 5788 5786 5785 5783 5781 5780 5778 5777 5775 5774 5772 5770 5768 5766 5765 5763 5761 5760 5758 5757 5756 5755 5753 5752 5751 5750 5748 5747 5745 5743 5742 5740 5739 5738 5738 5737 5737 5737 5736 5736 5735 5735 5736 5736 5736 5736 5736 5736 5737 5736 5736 5736 5736 5736 5737 5738 5738 5738 5738 5737 5737 5738 5739 5740 5741 5742 5743 5744 5746 5747 5749 5751 5753 5756 5758
5809 5808 5806 5804 5802 5800 5798 5796 5794 5792 5790 5789 5787 5786 5784 5783 5781 5779 5778 5776 5774 5773 5771 5769 5767 5765 5763 5762 5760 5758 5757 5755 5754 5753 5752 5751 5750 5748 5747 5746 5744 5742 5741 5740 5739 5738 5737 5737 5737 5736 5736 5735 5735 5735 5735 5735 5735 5735 5735 5735 5735 5735 5735 5735 5734 5734 5735 5735 5735 5735 5736 5736 5736 5736 5736 5737 5738 5738 5739 5739 5740 5742 5743 5744 5746 5749 5751 5753
5808 5806 5804 5802 5800 5798 5796 5794 5792 5790 5789 5787 5786 5784 5782 5781 5779 5777 5775 5774 5772 5770 5768 5766 5764 5762 5760 5759 5757 5755 5754 5753 5752 5750 5749 5748 5747 5746 5744 5743 5741 5740 5739 5738 5738 5737 5737 5736 5736 5736 5735 5735 5735 5734 5735 5734 5734 5734 5734 5734 5734 5734 5734 5734 5733 5732 5733 5733 5733 5733 5733 5734 5734 5735 5735 5735 5736 5736 5736 5737 5737 5738 5739 5740 5742 5744 5745 5747
5806 5805 5803 5800 5798 5796 5794 5792 5790 5788 5787 5785 5784 5782 5781 5779 5777 5775 5773 5771 5770 5768 5766 5764 5762 5759 5757 5756 5754 5752 5751 5750 5749 5748 5747 5746 5745 5744 5742 5740 5739 5738 5738 5737 5737 5736 5736 5736 5736 5736 5735 5735 5734 5734 5734 5733 5733 5733 5733 5733 5733 5733 5733 5732 5731 5731 5732 5732 5732 5732 5732 5732 5733 5733 5733 5733 5733 5734 5734 5734 5735 5735 5736 5737 5738 5739 5741 5743
5804 5803 5800 5798 5796 5794 5791 5790 5788 5786 5784 5783 5782 5780 5778 5776 5774 5773 5771 5769 5767 5765 5763 5761 5759 5757 5755 5753 5752 5750 5749 5748 5747 5746 5745 5744 5743 5741 5740 5738 5737 5737 5737 5737 5736 5736 5736 5736 5735 5735 5735 5734 5733 5733 5732 5732 5733 5732 5732 5732 5732 5732 5731 5731 5729 5729 5730 5730 5729 5729 5729 5729 5730 5730 5731 5731 5731 5731 5731 5732 5732 5732 5733 5733 5734 5735 5737 5738
5802 5800 5798 5796 5794 5791 5789 5787 5786 5784 5782 5781 5779 5777 5776 5774 5772 5770 5768 5766 5764 5762 5760 5758 5756 5754 5752 5750 5749 5748 5747 5745 5744 5744 5743 5742 5741 5739 5738 5737 5736 5736 5736 5736 5736 5736 5735 5735 5734 5734 5733 5733 5732 5731 5731 5731 5731 5731 5731 5730 5730 5730 5729 5729 5727 5726 5726 5726 5727 5726 5726 5726 5727 5727 5728 5728 5728 5727 5728 5729 5729 5730 5730 5731 5731 5731 5733 5734
5800 5798 5796 5794 5792 5789 5787 5785 5783 5782 5780 5779 5778 5776 5774 5772 5770 5767 5765 5763 5761 5759 5757 5755 5753 5751 5750 5748 5747 5745 5744 5743 5742 5742 5741 5740 5739 5737 5736 5735 5735 5735 5735 5735 5735 5735 5735 5734 5733 5732 5732 5731 5730 5730 5729 5729 5729 5729 5728 5728 5728 5727 5727 5726 5725 5724 5724 5723 5724 5724 5724 5724 5724 5724 5724 5724 5724 5724 5724 5725 5726 5726 5727 5727 5727 5728 5729 5731
5798 5796 5794 5791 5789 5787 5785 5783 5781 5780 5778 5777 5776 5774 5771 5769 5767 5765 5762 5760 5758 5756 5754 5752 5751 5749 5747 5746 5745 5743 5742 5741 5740 5740 5739 5738 5737 5735 5734 5734 5734 5734 5734 5734 5734 5734 5734 5733 5732 5731 5730 5729 5729 5728 5728 5728 5728 5727 5727 5726 5726 5725 5724 5724 5723 5723 5722 5721 5721 5721 5721 5721 5722 5721 5721 5721 5720 5720 5720 5721 5721 5722 5722 5723 5723 5724 5724 5726
5796 5794 5791 5789 5787 5784 5783 5781 5780 5778 5776 5774 5773 5771 5768 5766 5764 5762 5759 5757 5756 5754 5752 5750 5748 5747 5745 5744 5743 5741 5740 5740 5739 5738 5737 5736 5735 5734 5733 5732 5732 5733 5733 5733 5733 5733 5733 5732 5731 5730 5729 5728 5728 5728 5727 5727 5726 5726 5725 5724 5724 5723 5722 5722 5721 5721 5721 5719 5718 5718 5718 5718 5718 5719 5718 5717 5717 5716 5716 5716 5716 5717 5717 5718 5718 5719 5720 5721
5794 5792 5789 5787 5784 5782 5781 5779 5778 5776 5774 5772 5770 5768 5766 5764 5761 5759 5756 5754 5753 5751 5749 5747 5746 5744 5743 5742 5741 5739 5739 5738 5737 5736 5735 5734 5733 5732 5731 5731 5731 5732 5732 5732 5732 5732 5731 5730 5729 5729 5728 5728 5727 5727 5726 5726 5725 5724 5724 5722 5721 5720 5720 5719 5718 5718 5719 5718 5715 5715 5716 5716 5716 5716 5715 5714 5713 5712 5711 5711 5711 5712 5712 5713 5714 5715 5716 5717
5792 5790 5788 5785 5783 5781 5779 5777 5776 5774 5772 5770 5768 5765 5763 5761 5758 5756 5753 5751 5750 5748 5746 5745 5744 5742 5741 5740 5739 5738 5737 5736 5735 5734 5733 5732 5731 5730 5729 5729 5730 5731 5731 5731 5731 5731 5730 5729 5728 5728 5728 5727 5727 5726 5725 5725 5724 5723 5722 5720 5719 5718 5717 5716 5716 5715 5716 5716 5713 5712 5713 5714 5714 5714 5712 5710 5709 5708 5707 5706 5706 5707 5708 5709 5710 5711 5712 5713
5791 5788 5786 5784 5781 5779 5777 5775 5774 5772 5770 5768 5765 5763 5760 5758 5755 5752 5750 5748 5747 5745 5743 5742 5741 5740 5739 5738 5738 5737 5736 5735 5734 5733 5732 5731 5730 5728 5728 5728 5728 5729 5730 5730 5730 5729 5729 5728 5728 5727 5727 5727 5726 5725 5725 5724 5723 5722 5720 5718 5717 5716 5715 5714 5714 5713 5713 5713 5712 5710 5710 5713 5713 5710 5708 5707 5707 5705 5703 5703 5703 5702 5703 5705 5705 5706 5707 5709
5789 5787 5785 5782 5780 5778 5775 5774 5772 5770 5767 5765 5763 5760 5757 5755 5752 5749 5747 5746 5744 5743 5741 5740 5739 5739 5738 5737 5736 5735 5734 5733 5732 5731 5730 5729 5728 5727 5727 5727 5727 5728 5729 5729 5729 5728 5728 5727 5727 5727 5727 5726 5726 5725 5725 5724 5723 5721 5719 5717 5715 5714 5713 5712 5712 5712 5711 5711 5710 5708 5709 5711 5710 5707 5705 5704 5704 5702 5699 5700 5700 5698 5699 5701 5701 5702 5704 5705
5787 5785 5783 5781 5779 5776 5774 5772 5770 5767 5765 5763 5760 5757 5755 5752 5749 5747 5745 5743 5742 5741 5739 5738 5737 5737 5737 5736 5734 5734 5733 5732 5731 5730 5729 5728 5727 5726 5725 5726 5726 5727 5728 5728 5728 5727 5727 5726 5726 5726 5726 5725 5725 5725 5724 5724 5723 5721 5718 5716 5714 5713 5711 5710 5710 5710 5709 5709 5708 5706 5707 5709 5708 5705 5703 5701 5701 5700 5699 5699 5698 5696 5696 5698 5698 5699 5700 5701
5785 5783 5782 5779 5777 5775 5773 5770 5767 5765 5762 5760 5757 5755 5752 5749 5746 5744 5742 5741 5740 5739 5738 5736 5736 5736 5735 5735 5734 5733 5732 5731 5730 5729 5727 5726 5725 5724 5724 5725 5726 5726 5727 5727 5726 5726 5726 5726 5725 5725 5725 5725 5725 5725 5724 5723 5722 5720 5717 5715 5714 5712 5711 5709 5708 5708 5708 5706 5705 5704 5705 5706 5705 5702 5700 5699 5698 5698 5697 5696 5695 5694 5694 5694 5695 5696 5696 5697
5784 5782 5780 5778 5775 5773 5770 5768 5765 5763 5760 5757 5755 5752 5749 5746 5744 5742 5740 5739 5738 5737 5736 5735 5734 5734 5734 5733 5732 5732 5731 5730 5729 5727 5726 5724 5724 5723 5723 5724 5725 5726 5727 5726 5726 5726 5726 5725 5725 5725 5724 5724 5724 5724 5723 5722 5721 5720 5717 5715 5714 5712 5711 5709 5707 5707 5707 5705 5702 5702 5702 5703 5703 5700 5698 5697 5697 5696 5695 5693 5693 5692 5692 5691 5691 5692 5692 5692
5782 5780 5778 5776 5774 5771 5768 5766 5763 5760 5757 5754 5752 5749 5746 5744 5742 5740 5738 5737 5736 5735 5734 5733 5732 5732 5732 5731 5731 5730 5730 5729 5727 5726 5724 5723 5722 5722 5722 5723 5724 5726 5726 5726 5726 5726 5725 5725 5724 5724 5723 5723 5723 5722 5721 5720 5720 5719 5718 5716 5714 5713 5711 5709 5707 5706 5706 5704 5701 5700 5700 5700 5700 5698 5696 5696 5695 5693 5692 5691 5690 5690 5689 5689 5688 5688 5688 5688
5780 5778 5776 5774 5772 5770 5767 5764 5761 5758 5755 5752 5749 5747 5744 5741 5739 5737 5736 5735 5734 5734 5733 5732 5731 5731 5730 5730 5729 5729 5728 5727 5726 5725 5723 5722 5721 5721 5721 5722 5723 5725 5725 5725 5726 5725 5725 5724 5724 5723 5723 5722 5722 5721 5720 5719 5719 5719 5718 5716 5715 5713 5711 5709 5708 5706 5704 5703 5701 5700 5699 5699 5698 5697 5695 5694 5693 5691 5689 5688 5687 5686 5686 5685 5684 5684 5683 5683
5779 5777 5775 5773 5770 5768 5765 5762 5759 5756 5753 5750 5747 5745 5742 5739 5737 5735 5734 5733 5733 5732 5731 5730 5729 5729 5729 5728 5728 5727 5727 5726 5725 5724 5722 5721 5720 5720 5720 5721 5722 5724 5724 5725 5725 5724 5724 5724 5723 5723 5722 5721 5721 5720 5720 5719 5718 5718 5717 5715 5714 5712 5711 5709 5707 5705 5704 5702 5701 5699 5699 5699 5697 5695 5694 5692 5690 5688 5687 5686 5684 5683 5681 5680 5680 5679 5678 5678
5777 5775 5773 5771 5768 5766 5763 5760 5757 5754 5751 5748 5745 5742 5740 5737 5735 5734 5733 5732 5731 5731 5730 5729 5728 5728 5728 5727 5727 5726 5726 5725 5724 5723 5721 5720 5719 5719 5719 5720 5721 5722 5723 5724 5724 5724 5724 5723 5723 5722 5721 5721 5720 5720 5719 5718 5717 5717 5716 5715 5713 5711 5709 5708 5706 5705 5703 5702 5701 5699 5699 5698 5696 5694 5692 5690 5688 5687 5685 5683 5680 5678 5676 5675 5674 5674 5673 5672
5776 5773 5771 5769 5766 5764 5761 5758 5755 5751 5749 5746 5743 5741 5738 5736 5734 5733 5732 5731 5730 5729 5729 5728 5727 5727 5727 5726 5726 5726 5725 5724 5723 5722 5720 5719 5719 5718 5718 5719 5720 5721 5722 5722 5723 5722 5722 5722 5721 5721 5720 5720 5720 5719 5718 5718 5717 5716 5715 5714 5713 5711 5709 5707 5706 5705 5704 5703 5701 5699 5698 5697 5695 5692 5690 5688 5687 5685 5683 5680 5677 5674 5671 5669 5669 5668 5668 5667
5774 5772 5769 5767 5764 5762 5759 5756 5752 5750 5747 5744 5742 5739 5737 5735 5733 5732 5731 5730 5729 5728 5728 5727 5726 5726 5726 5725 5725 5725 5724 5723 5723 5721 5720 5719 5718 5718 5717 5718 5719 5720 5720 5721 5721 5721 5721 5721 5720 5720 5719 5719 5719 5718 5718 5717 5716 5715 5714 5713 5712 5711 5709 5707 5706 5705 5704 5703 5701 5699 5698 5696 5694 5692 5690 5688 5687 5684 5681 5678 5674 5670 5667 5665 5663 5662 5661 5661
5773 5770 5768 5765 5763 5760 5757 5754 5751 5748 5746 5743 5740 5738 5736 5735 5733 5731 5730 5729 5728 5728 5727 5727 5726 5726 5725 5725 5725 5724 5724 5723 5722 5721 5719 5718 5717 5717 5717 5717 5717 5718 5719 5720 5720 5720 5720 5720 5719 5719 5718 5718 5718 5717 5716 5716 5715 5714 5713 5712 5711 5709 5708 5707 5706 5705 5704 5702 5701 5700 5698 5695 5693 5691 5688 5685 5683 5681 5678 5675 5671 5667 5665 5663 5660 5656 5655 5654
5771 5769 5767 5764 5761 5759 5756 5753 5750 5747 5745 5742 5739 5738 5736 5734 5732 5731 5730 5729 5728 5728 5727 5726 5726 5725 5725 5724 5724 5724 5723 5722 5721 5720 5719 5718 5717 5716 5716 5716 5716 5717 5718 5719 5719 5719 5719 5719 5718 5718 5717 5717 5716 5716 5715 5714 5713 5712 5712 5711 5709 5707 5706 5706 5706 5705 5703 5701 5700 5699 5697 5693 5690 5688 5684 5681 5678 5676 5673 5671 5668 5665 5662 5660 5657 5653 5650 5648
5770 5768 5765 5762 5760 5757 5754 5751 5749 5747 5744 5741 5739 5737 5735 5734 5732 5731 5729 5728 5728 5727 5727 5726 5725 5725 5725 5724 5724 5723 5723 5722 5721 5719 5718 5717 5716 5716 5715 5715 5715 5716 5716 5717 5717 5718 5718 5718 5717 5717 5716 5716 5715 5715 5714 5713 5712 5711 5710 5709 5708 5706 5705 5705 5705 5703 5701 5700 5699 5697 5694 5690 5687 5684 5681 5678 5675 5672 5670 5667 5664 5662 5659 5656 5653 5650 5647 5644
5768 5766 5763 5761 5759 5756 5753 5751 5748 5746 5744 5741 5739 5737 5735 5733 5732 5730 5729 5728 5728 5727 5726 5726 5725 5725 5724 5724 5723 5723 5722 5721 5720 5719 5718 5717 5716 5715 5714 5714 5714 5714 5715 5715 5716 5716 5716 5717 5717 5716 5716 5715 5714 5714 5713 5712 5711 5710 5709 5708 5707 5705 5705 5704 5703 5701 5699 5698 5695 5693 5691 5689 5686 5682 5679 5676 5673 5670 5667 5664 5661 5659 5656 5653 5650 5647 5645 5642
5767 5765 5762 5760 5757 5755 5752 5750 5748 5746 5744 5741 5739 5737 5735 5733 5732 5731 5729 5728 5727 5727 5726 5725 5725 5724 5724 5724 5723 5722 5721 5721 5720 5719 5718 5716 5715 5715 5714 5713 5713 5713 5713 5714 5714 5714 5715 5715 5715 5715 5714 5714 5713 5712 5711 5711 5710 5709 5708 5707 5706 5705 5704 5703 5701 5699 5697 5696 5694 5692 5691 5688 5684 5680 5677 5674 5671 5668 5665 5662 5660 5657 5654 5651 5648 5645 5643 5641
5765 5763 5761 5759 5756 5754 5751 5749 5747 5745 5743 5741 5739 5737 5735 5733 5732 5731 5729 5728 5727 5726 5726 5725 5725 5724 5724 5723 5722 5721 5721 5720 5719 5718 5717 5716 5715 5714 5713 5713 5712 5712 5712 5712 5713 5713 5713 5713 5714 5714 5713 5712 5711 5710 5709 5709 5708 5707 5707 5706 5705 5703 5702 5701 5698 5696 5695 5694 5693 5691 5689 5687 5683 5679 5676 5673 5670 5667 5664 5662 5659 5657 5654 5651 5648 5644 5642 5640
5764 5761 5759 5757 5755 5752 5749 5747 5746 5744 5742 5740 5738 5736 5734 5733 5732 5731 5730 5729 5728 5727 5726 5725 5724 5724 5724 5723 5722 5721 5720 5720 5719 5718 5717 5716 5715 5714 5713 5712 5712 5711 5711 5711 5711 5711 5711 5712 5712 5712 5711 5711 5710 5709 5707 5706 5706 5705 5704 5703 5702 5701 5699 5698 5696 5694 5692 5691 5690 5688 5686 5684 5681 5678 5675 5672 5669 5667 5664 5661 5658 5655 5652 5649 5647 5644 5641 5638
5763 5761 5758 5756 5754 5751 5748 5746 5744 5743 5741 5739 5737 5736 5734 5733 5731 5731 5730 5729 5728 5727 5726 5725 5724 5724 5723 5722 5721 5721 5720 5719 5718 5717 5716 5715 5714 5713 5712 5712 5711 5711 5710 5710 5710 5710 5710 5710 5711 5711 5711 5710 5709 5708 5706 5705 5704 5703 5702 5701 5700 5698 5697 5695 5693 5692 5690 5688 5687 5686 5685 5683 5680 5676 5674 5671 5669 5666 5664 5661 5657 5653 5650 5647 5645 5642 5640 5637
5761 5759 5757 5755 5753 5750 5747 5745 5743 5742 5740 5738 5737 5735 5734 5733 5732 5731 5730 5729 5728 5726 5725 5725 5724 5723 5723 5722 5721 5721 5720 5719 5718 5717 5716 5715 5714 5713 5712 5711 5711 5710 5709 5709 5709 5708 5708 5708 5708 5709 5709 5708 5707 5706 5705 5704 5702 5701 5700 5698 5697 5696 5694 5693 5692 5691 5689 5687 5685 5683 5681 5680 5678 5675 5673 5671 5667 5664 5662 5660 5657 5653 5649 5646 5642 5640 5638 5636
5760 5758 5755 5753 5752 5749 5747 5745 5743 5741 5739 5738 5736 5735 5734 5733 5731 5730 5729 5728 5727 5726 5725 5724 5723 5723 5722 5721 5721 5720 5719 5718 5717 5716 5715 5714 5713 5712 5711 5711 5710 5709 5708 5708 5708 5707 5707 5707 5707 5707 5706 5706 5705 5704 5703 5702 5700 5699 5698 5696 5695 5694 5693 5691 5690 5689 5687 5686 5684 5681 5678 5676 5673 5671 5670 5668 5665 5662 5659 5658 5655 5652 5648 5644 5640 5637 5635 5634
5758 5756 5754 5752 5750 5748 5746 5744 5742 5740 5738 5737 5735 5734 5733 5732 5731 5730 5729 5728 5727 5726 5725 5724 5723 5722 5721 5721 5720 5719 5719 5718 5717 5716 5715 5713 5713 5712 5711 5710 5709 5708 5707 5707 5707 5706 5706 5705 5705 5705 5705 5704 5703 5702 5701 5700 5698 5697 5696 5694 5693 5692 5691 5689 5688 5687 5685 5684 5682 5679 5676 5673 5671 5668 5666 5663 5661 5659 5657 5655 5653 5650 5646 5642 5639 5636 5633 5631
5757 5755 5753 5751 5748 5746 5744 5743 5741 5739 5737 5736 5734 5733 5732 5731 5730 5729 5728 5727 5726 5725 5725 5724 5723 5722 5721 5720 5720 5719 5718 5717 5717 5715 5714 5713 5712 5711 5710 5709 5708 5707 5707 5706 5705 5705 5705 5704 5703 5703 5703 5702 5701 5700 5699 5698 5696 5694 5693 5692 5692 5690 5689 5687 5686 5685 5683 5681 5679 5676 5674 5671 5668 5665 5663 5660 5658 5656 5654 5653 5651 5649 5646 5642 5638 5634 5631 5628
5755 5753 5751 5749 5747 5745 5743 5741 5740 5738 5736 5735 5734 5732 5731 5731 5730 5729 5728 5727 5726 5725 5724 5723 5722 5721 5720 5719 5719 5718 5718 5717 5716 5715 5714 5713 5712 5711 5710 5709 5708 5707 5706 5705 5704 5704 5703 5702 5701 5701 5701 5700 5699 5698 5697 5696 5694 5693 5691 5690 5690 5689 5687 5685 5684 5683 5681 5679 5677 5674 5672 5670 5667 5663 5660 5658 5656 5655 5653 5651 5650 5648 5645 5641 5637 5633 5630 5627
5753 5751 5750 5748 5746 5744 5742 5740 5739 5737 5735 5734 5733 5732 5731 5730 5729 5728 5728 5727 5726 5725 5723 5722 5721 5720 5720 5719 5718 5718 5717 5716 5715 5714 5713 5712 5711 5710 5709 5708 5707 5706 5705 5704 5704 5703 5702 5701 5700 5699 5699 5698 5697 5696 5695 5694 5693 5691 5690 5688 5688 5687 5685 5683 5682 5681 5679 5677 5675 5673 5671 5670 5666 5663 5659 5656 5655 5655 5653 5651 5649 5647 5644 5640 5636 5632 5629 5625
5751 5750 5748 5746 5744 5742 5741 5739 5738 5736 5734 5733 5732 5731 5730 5729 5728 5728 5727 5726 5725 5724 5723 5722 5721 5720 5719 5718 5717 5717 5716 5715 5714 5713 5712 5711 5710 5709 5708 5707 5706 5705 5704 5703 5703 5702 5701 5700 5699 5698 5698 5696 5695 5694 5694 5692 5691 5690 5688 5686 5686 5685 5683 5681 5680 5679 5677 5675 5673 5671 5669 5668 5665 5662 5659 5656 5654 5654 5652 5650 5648 5645 5643 5639 5635 5631 5628 5625